CW7959 Weather Reports


Display with metric or nautical units.
time (UTC)temp
F
wind
direction
speed
MPH
gust
MPH
rain 1hr
in
rain 24hr
in
rain mn
in
humidity
%
barometer
mb
20260904211904 53 177 1.0 3.0 0.02 0.80 0.74 94 1008.4
20260904211404 54 177 0.0 0.0 0.04 0.81 0.74 94 1008.3
20260904210904 54 177 0.0 2.0 0.05 0.83 0.74 95 1008.2
20260904210404 54 177 0.0 3.0 0.05 0.85 0.74 94 1008.1
20260904205404 54 177 0.0 2.0 0.06 0.86 0.74 94 1008.1
20260904204905 54 177 1.0 5.0 0.11 0.86 0.74 94 1008.1
20260904204405 54 173 1.0 3.0 0.20 0.86 0.74 94 1008.0
20260904203905 54 173 1.0 3.0 0.21 0.87 0.74 94 1007.8
20260904203405 54 173 2.0 5.0 0.21 0.87 0.74 94 1007.9
20260904202905 54 167 1.0 3.0 0.20 0.88 0.73 94 1007.8
20260904202405 54 167 0.0 0.0 0.20 0.91 0.72 94 1007.9
20260904201906 54 167 0.0 0.0 0.19 0.91 0.72 94 1007.7
20260904201405 54 167 0.0 0.0 0.17 0.90 0.70 93 1007.6
20260904200406 54 167 1.0 3.0 0.18 0.90 0.69 93 1007.7
20260904195904 55 167 0.0 6.0 0.18 0.89 0.69 93 1007.5
20260904195405 55 184 2.0 3.0 0.17 0.88 0.68 93 1007.6
20260904194906 55 185 2.0 7.0 0.13 0.83 0.63 93 1007.6
20260904193404 55 169 2.0 6.0 0.02 0.73 0.53 93 1007.3
20260904192905 55 169 0.0 5.0 0.02 0.73 0.53 92 1007.4
20260904192404 55 169 2.0 9.0 0.02 0.75 0.53 92 1007.4
20260904191905 55 210 1.0 7.0 0.02 0.76 0.53 92 1007.3
20260904191404 55 210 2.0 7.0 0.02 0.79 0.53 92 1007.2
20260904190905 55 210 5.0 8.0 0.02 0.78 0.52 92 1007.2
20260904185904 55 208 5.0 9.0 0.00 0.76 0.50 91 1007.0
20260904185404 55 212 4.0 10.0 0.00 0.76 0.50 91 1007.1
20260904184904 55 214 6.0 10.0 0.00 0.76 0.50 90 1007.0
20260904184404 55 216 5.0 8.0 0.00 0.77 0.50 90 1007.0
20260904183904 56 211 2.0 7.0 0.00 0.77 0.50 90 1007.1
20260904183404 56 211 4.0 13.0 0.00 0.77 0.50 90 1007.0
20260904182904 56 213 2.0 7.0 0.00 0.77 0.50 91 1007.0
20260904182404 56 213 4.0 8.0 0.00 0.77 0.50 91 1007.0
20260904181405 56 221 3.0 8.0 0.00 0.77 0.50 92 1007.0
20260904180904 56 227 0.0 5.0 0.00 0.77 0.50 92 1006.9
20260904180405 56 227 2.0 6.0 0.01 0.77 0.50 92 1006.7
20260904175405 56 232 1.0 5.0 0.02 0.77 0.50 92 1006.8
20260904174404 56 234 0.0 7.0 0.02 0.85 0.50 93 1006.8
20260904173905 56 238 2.0 5.0 0.02 0.86 0.50 93 1006.8
20260904173404 56 238 1.0 3.0 0.02 0.87 0.50 93 1006.7
20260904172405 56 238 0.0 1.0 0.02 0.91 0.50 91 1006.7
20260904171905 56 238 1.0 6.0 0.02 0.91 0.50 90 1006.7
20260904170905 56 175 2.0 10.0 0.02 0.91 0.50 88 1006.5
20260904170404 57 261 3.0 9.0 0.02 0.90 0.50 86 1006.4
20260904165904 57 263 3.0 8.0 0.01 0.89 0.49 85 1006.7
20260904164905 57 280 1.0 10.0 0.00 0.89 0.48 85 1006.3
20260904164406 58 273 3.0 7.0 0.00 0.89 0.48 84 1006.2
20260904163905 59 263 3.0 8.0 0.00 0.89 0.48 81 1006.2
20260904162904 61 196 3.0 7.0 0.00 0.89 0.48 77 1005.8
20260904162405 61 241 2.0 7.0 0.00 0.89 0.48 73 1005.6
20260904161904 62 178 2.0 10.0 0.00 0.89 0.48 74 1005.8
20260904161405 62 257 3.0 6.0 0.00 0.89 0.48 74 1005.6
20260904160405 64 276 2.0 10.0 0.00 0.89 0.48 71 1005.5
20260904155905 63 258 2.0 5.0 0.00 0.89 0.48 72 1005.4
20260904155404 63 266 2.0 7.0 0.00 0.89 0.48 74 1005.2
20260904154905 62 261 2.0 6.0 0.00 0.89 0.48 76 1005.2
20260904154405 62 269 2.0 7.0 0.00 0.89 0.48 73 1005.1
20260904153905 62 217 5.0 13.0 0.00 0.89 0.48 74 1004.9
20260904152904 62 234 2.0 7.0 0.00 0.89 0.48 79 1004.9
20260904152405 61 9 1.0 9.0 0.00 0.89 0.48 79 1004.9
20260904151905 61 267 3.0 7.0 0.00 0.89 0.48 78 1004.8
20260904151405 60 233 2.0 13.0 0.00 0.89 0.48 83 1004.7
20260904150905 59 203 4.0 12.0 0.00 0.89 0.48 79 1004.8
20260904150405 59 338 5.0 10.0 0.00 0.89 0.48 80 1004.7
20260904145904 60 237 4.0 9.0 0.00 0.89 0.48 83 1004.6
20260904144905 60 243 3.0 10.0 0.00 0.89 0.48 81 1004.4
20260904144405 60 228 3.0 7.0 0.00 0.89 0.48 80 1004.3
20260904143405 60 226 3.0 8.0 0.00 0.90 0.48 81 1004.2
20260904142905 59 196 1.0 8.0 0.00 0.90 0.48 82 1004.3
20260904142404 60 243 3.0 14.0 0.00 0.90 0.48 81 1004.1
20260904141905 59 266 4.0 12.0 0.00 0.90 0.48 85 1004.0
20260904141405 59 235 3.0 14.0 0.00 0.90 0.48 83 1004.0
20260904140905 59 220 3.0 8.0 0.00 0.91 0.48 86 1003.9
20260904140404 58 209 3.0 9.0 0.00 0.91 0.48 86 1003.9
20260904135906 59 200 5.0 12.0 0.00 0.91 0.48 86 1003.8
20260904135405 59 210 3.0 9.0 0.00 0.91 0.48 86 1003.8
20260904134905 59 228 3.0 13.0 0.00 0.91 0.48 87 1003.9
20260904134405 58 289 3.0 10.0 0.00 0.91 0.48 85 1003.7
20260904133904 58 208 5.0 10.0 0.00 0.93 0.48 88 1003.7
20260904133404 58 207 5.0 12.0 0.00 0.93 0.48 89 1003.7
20260904132904 57 206 5.0 9.0 0.00 0.93 0.48 89 1003.7
20260904131905 57 253 2.0 10.0 0.00 0.93 0.48 92 1003.7
20260904130904 57 219 3.0 10.0 0.02 0.93 0.48 90 1003.3
20260904130404 56 222 3.0 10.0 0.02 0.93 0.48 91 1003.2
20260904125404 57 167 2.0 10.0 0.02 0.93 0.48 90 1003.0
20260904124904 56 228 3.0 14.0 0.02 0.93 0.48 90 1002.9
20260904124404 56 174 3.0 9.0 0.02 0.93 0.48 89 1002.8
20260904123904 56 294 4.0 20.0 0.02 0.93 0.48 89 1002.8
20260904123405 56 248 2.0 8.0 0.02 0.93 0.48 91 1002.7
20260904122905 56 219 3.0 10.0 0.02 0.93 0.48 92 1002.7
20260904121905 56 192 0.0 5.0 0.02 0.93 0.48 93 1002.6
20260904120904 56 215 2.0 8.0 0.01 0.91 0.46 91 1002.5
20260904120405 56 220 2.0 9.0 0.01 0.91 0.46 91 1002.4
20260904115905 56 261 4.0 10.0 0.01 0.91 0.46 91 1002.4
20260904115405 56 221 5.0 10.0 0.01 0.91 0.46 92 1002.4
20260904114906 55 246 3.0 8.0 0.01 0.91 0.46 91 1002.2
20260904114405 55 219 3.0 13.0 0.00 0.91 0.46 91 1002.3
20260904113406 56 255 1.0 3.0 0.00 0.91 0.46 92 1002.0
20260904112405 56 219 3.0 8.0 0.01 0.91 0.46 92 1001.7
20260904111905 56 221 3.0 10.0 0.01 0.91 0.46 92 1001.6
20260904111405 56 238 3.0 7.0 0.01 0.91 0.46 90 1001.6
20260904110905 55 242 3.0 14.0 0.01 0.91 0.46 92 1001.5
20260904110405 55 215 4.0 12.0 0.01 0.91 0.46 92 1001.6
20260904105905 55 209 2.0 12.0 0.01 0.91 0.46 92 1001.3
20260904105405 55 213 3.0 8.0 0.01 0.91 0.46 91 1001.4
20260904104905 55 236 2.0 10.0 0.01 0.91 0.46 92 1001.5
20260904103905 55 225 2.0 3.0 0.01 0.91 0.46 93 1001.4
20260904102906 55 225 2.0 6.0 0.00 0.90 0.45 93 1001.4
20260904102405 55 226 5.0 9.0 0.00 0.90 0.45 91 1001.2
20260904101905 56 242 1.0 12.0 0.00 0.90 0.45 90 1001.0
20260904101405 56 338 4.0 12.0 0.00 0.90 0.45 91 1000.6
20260904100904 56 275 1.0 3.0 0.00 0.90 0.45 92 1000.7
20260904100405 56 275 1.0 6.0 0.00 0.90 0.45 92 1000.6
20260904095906 56 292 1.0 5.0 0.00 0.90 0.45 91 1000.6
20260904094405 55 221 0.0 3.0 0.01 0.90 0.45 93 1000.4
20260904093405 55 221 2.0 5.0 0.01 0.90 0.45 92 1000.2
20260904092405 56 259 2.0 7.0 0.02 0.90 0.45 95 1000.1
20260904091905 55 299 1.0 6.0 0.02 0.90 0.45 95 1000.1
20260904091405 55 313 3.0 8.0 0.04 0.90 0.45 95 1000.0
20260904090905 55 274 1.0 3.0 0.07 0.90 0.45 96 999.7
20260904090405 55 274 0.0 7.0 0.09 0.90 0.45 96 999.4
20260904085905 55 227 3.0 8.0 0.09 0.90 0.45 96 999.2
20260904085405 55 207 1.0 5.0 0.08 0.89 0.44 96 998.8
20260904084905 55 207 2.0 7.0 0.09 0.89 0.44 96 998.5
20260904084405 55 208 4.0 10.0 0.09 0.89 0.44 96 998.5
20260904083906 55 205 5.0 10.0 0.09 0.89 0.44 96 998.6
20260904083405 55 211 5.0 10.0 0.09 0.89 0.44 96 998.4
20260904082906 55 203 3.0 8.0 0.09 0.89 0.44 96 998.3
20260904082405 55 219 1.0 6.0 0.08 0.88 0.43 96 998.1
20260904081905 55 203 2.0 7.0 0.08 0.87 0.43 96 998.2
20260904081405 55 206 6.0 10.0 0.07 0.86 0.41 96 998.3
20260904080905 55 211 3.0 9.0 0.04 0.83 0.38 96 998.3
20260904074905 55 207 5.0 9.0 0.02 0.80 0.35 97 998.1
20260904074406 55 199 3.0 8.0 0.06 0.80 0.35 97 998.2
20260904073905 55 200 5.0 12.0 0.07 0.80 0.35 96 998.2
20260904073405 55 195 4.0 10.0 0.08 0.80 0.35 96 998.2
20260904072905 55 199 5.0 9.0 0.09 0.80 0.35 97 998.3
20260904072405 55 216 1.0 7.0 0.14 0.80 0.35 97 998.4
20260904071905 55 212 1.0 8.0 0.15 0.80 0.35 97 998.3
20260904071404 55 202 4.0 9.0 0.20 0.79 0.34 97 998.3
20260904070405 55 199 5.0 10.0 0.20 0.79 0.34 97 998.3
20260904065905 55 205 5.0 12.0 0.20 0.79 0.34 97 998.4
20260904065405 54 215 2.0 5.0 0.20 0.79 0.34 97 998.4
20260904064405 54 212 0.0 8.0 0.17 0.74 0.29 97 998.3
20260904063905 54 212 4.0 12.0 0.19 0.73 0.28 97 998.4
20260904062905 55 218 4.0 14.0 0.18 0.71 0.26 97 998.4
20260904062405 55 231 1.0 13.0 0.13 0.66 0.21 97 998.4
20260904061905 55 215 2.0 5.0 0.12 0.65 0.20 97 998.4
20260904061405 55 205 1.0 7.0 0.06 0.58 0.13 97 998.3
20260904060905 55 205 1.0 5.0 0.06 0.58 0.13 97 998.4
20260904055905 55 207 3.0 7.0 0.06 0.58 0.13 97 998.4
20260904055406 54 200 0.0 5.0 0.06 0.58 0.13 97 998.6
20260904054905 54 200 2.0 6.0 0.05 0.57 0.13 97 998.6
20260904054405 54 200 0.0 3.0 0.04 0.57 0.12 97 998.5
20260904053405 54 200 2.0 9.0 0.01 0.54 0.09 97 998.7
20260904052905 54 202 1.0 12.0 0.00 0.53 0.08 97 998.7
20260904051905 54 202 2.0 7.0 0.02 0.53 0.08 97 998.5
20260904051404 54 202 2.0 7.0 0.03 0.53 0.08 97 998.5
20260904050904 54 202 1.0 6.0 0.05 0.53 0.08 97 998.7
20260904050405 54 202 2.0 12.0 0.06 0.53 0.08 97 998.8
20260904045904 54 224 5.0 13.0 0.06 0.53 0.08 97 998.8
20260904045405 54 211 5.0 12.0 0.06 0.53 0.08 97 998.9
20260904044407 54 212 4.0 7.0 0.06 0.53 0.08 97 998.9
20260904043905 54 223 2.0 6.0 0.06 0.53 0.08 97 999.0
20260904043406 54 223 3.0 6.0 0.06 0.53 0.08 97 999.2
20260904042906 54 225 2.0 8.0 0.06 0.53 0.08 97 999.3
20260904042406 54 231 3.0 12.0 0.06 0.53 0.08 97 999.2
20260904040906 54 215 1.0 6.0 0.01 0.48 0.03 97 999.3
20260904040405 54 215 0.0 1.0 0.00 0.47 0.02 97 999.2
20260904035904 54 215 0.0 2.0 0.00 0.47 0.02 97 999.2
20260904035405 54 215 0.0 2.0 0.00 0.47 0.02 97 999.3
20260904034904 54 215 3.0 9.0 0.00 0.47 0.02 97 999.3
20260904034405 54 216 5.0 12.0 0.00 0.47 0.02 97 999.5
20260904033905 54 213 0.0 1.0 0.00 0.47 0.02 97 999.6
20260904033405 54 213 0.0 2.0 0.00 0.47 0.02 97 999.6
20260904032905 54 213 0.0 3.0 0.00 0.47 0.02 97 999.7
20260904032405 54 213 1.0 3.0 0.01 0.47 0.02 97 999.7
20260904031405 54 213 0.0 0.0 0.02 0.47 0.02 97 999.8
20260904030905 53 213 0.0 3.0 0.02 0.47 0.02 97 999.9
20260904030405 53 213 0.0 2.0 0.02 0.47 0.02 97 1000.0
20260904025905 53 213 0.0 2.0 0.02 0.47 0.02 97 1000.1
20260904023405 53 213 0.0 2.0 0.02 0.47 0.02 96 1000.6
20260904022405 53 213 0.0 6.0 0.02 0.46 0.02 96 1000.5
20260904020905 53 213 1.0 7.0 0.01 0.46 0.01 97 1000.6
20260904015905 53 213 0.0 2.0 0.01 0.46 0.01 97 1000.7
20260904015404 53 213 0.0 1.0 0.00 0.45 0.00 96 1000.8
20260904014904 53 213 0.0 7.0 0.00 0.45 0.00 96 1000.8
20260904014405 53 213 0.0 0.0 0.00 0.45 0.00 96 1000.8
20260904013905 53 213 0.0 0.0 0.00 0.45 0.00 96 1000.9
20260904013405 53 213 0.0 1.0 0.00 0.45 0.00 96 1001.0
20260904012904 53 213 2.0 10.0 0.00 0.46 0.00 96 1001.2
20260904011905 53 210 2.0 5.0 0.00 0.46 0.00 96 1001.3
20260904010905 53 210 0.0 2.0 0.00 0.46 0.00 96 1001.2
20260904010405 54 210 1.0 7.0 0.00 0.46 0.00 96 1001.4
20260904005905 54 210 2.0 6.0 0.00 0.46 0.00 96 1001.5
20260904005405 54 210 0.0 3.0 0.00 0.46 0.00 96 1001.5
20260904004905 54 210 0.0 0.0 0.00 0.46 0.00 96 1001.5
20260904004404 54 210 0.0 1.0 0.00 0.46 0.00 96 1001.6
20260904003905 54 210 0.0 3.0 0.00 0.46 0.00 97 1001.5
20260904003404 54 210 0.0 3.0 0.00 0.46 0.00 96 1001.6
20260904002905 54 210 0.0 0.0 0.00 0.46 0.00 96 1001.6
20260904002404 54 210 0.0 2.0 0.00 0.46 0.00 96 1001.6
20260904001904 54 210 0.0 1.0 0.00 0.46 0.00 96 1001.6
20260904001404 54 210 0.0 2.0 0.00 0.46 0.00 96 1001.6
20260904000904 54 210 0.0 0.0 0.00 0.46 0.00 96 1001.7
20260904000405 54 210 0.0 0.0 0.00 0.46 0.00 96 1001.7
20260903235905 54 210 0.0 0.0 0.00 0.46 0.00 96 1001.8
20260903235405 54 210 1.0 3.0 0.00 0.46 0.00 96 1002.0
20260903234904 54 210 0.0 1.0 0.00 0.46 0.00 96 1001.9
20260903234405 55 210 0.0 0.0 0.00 0.46 0.00 96 1001.9
20260903233905 55 210 0.0 0.0 0.00 0.46 0.00 96 1002.0
20260903233405 55 210 0.0 0.0 0.00 0.46 0.00 96 1002.1
20260903232905 55 210 0.0 0.0 0.00 0.47 0.00 96 1002.1
20260903232404 55 210 0.0 0.0 0.00 0.47 0.00 96 1002.2
20260903231905 55 210 0.0 0.0 0.00 0.47 0.00 96 1002.3
20260903231404 55 210 0.0 0.0 0.01 0.48 0.00 96 1002.4
20260903230405 55 210 0.0 0.0 0.01 0.50 0.00 96 1002.6
20260903225403 56 210 0.0 0.0 0.01 0.50 0.50 96 1002.7
20260903224903 56 210 0.0 0.0 0.02 0.50 0.50 96 1002.7
20260903224404 56 210 2.0 6.0 0.02 0.51 0.50 96 1002.7
20260903223903 56 210 2.0 7.0 0.02 0.51 0.50 96 1002.8
20260903223406 56 210 1.0 5.0 0.03 0.52 0.50 96 1002.9
20260903222404 56 210 2.0 3.0 0.04 0.55 0.50 96 1002.8
20260903221904 56 210 3.0 8.0 0.06 0.56 0.50 96 1002.9
20260903220904 56 209 2.0 6.0 0.08 0.56 0.49 96 1002.8
20260903215904 56 210 2.0 10.0 0.11 0.56 0.49 96 1003.0
20260903215404 56 201 4.0 14.0 0.11 0.56 0.49 96 1002.9
20260903214405 56 208 5.0 9.0 0.10 0.57 0.48 96 1003.1
20260903213904 56 207 5.0 12.0 0.10 0.57 0.47 96 1003.1
20260903213405 56 207 3.0 7.0 0.09 0.56 0.46 96 1003.2
20260903212404 56 206 0.0 3.0 0.14 0.56 0.46 96 1003.3